GFSNE_sfc_dewp_090.txt.gz
Dewpoint
60 60 60 60 59 57 53 54 50 47 47 48 48 47 47 47 45 44 43 44 43 43 43 44 45 46 46 46 45 44 43 42 43 43 45 45 44 43
59 58 58 58 57 55 53 54 52 49 47 48 46 47 45 41 42 42 41 43 42 41 42 42 42 43 44 44 45 45 44 43 43 43 43 43 42 41
57 56 55 55 54 53 53 53 50 50 48 47 47 43 42 41 37 40 41 39 39 40 40 39 39 40 41 41 42 42 42 42 42 42 42 42 43 43
55 55 55 54 53 53 53 52 50 49 48 46 42 40 40 41 40 40 37 35 38 40 38 38 38 38 39 39 39 39 40 40 40 40 39 39 40 41
56 55 54 53 52 53 52 50 50 46 44 43 41 42 40 38 38 39 39 40 36 38 34 34 34 35 35 36 37 38 36 36 37 38 38 39 39 39
56 54 53 53 51 50 47 46 45 43 43 41 40 37 37 37 37 36 37 37 35 29 29 27 29 30 32 34 34 35 36 37 36 36 36 36 38 39
50 48 46 47 44 45 45 45 43 40 39 38 35 33 33 34 34 35 32 30 29 26 23 21 24 25 28 33 32 34 34 34 35 34 34 34 34 37
39 37 36 36 35 34 34 33 34 34 34 33 32 33 34 33 31 27 24 22 18 20 22 23 23 23 24 26 29 33 34 34 34 34 34 34 34 34
35 34 33 32 31 29 29 28 28 27 27 31 32 30 27 24 23 23 21 20 20 21 23 23 25 23 23 21 30 32 33 33 33 34 34 33 33 34
32 32 31 31 30 30 26 23 23 24 26 22 25 24 24 24 23 22 23 24 24 23 24 26 24 24 25 24 30 32 32 32 32 33 33 33 33 34
30 30 30 29 28 27 26 26 25 24 25 26 25 19 19 20 21 21 21 20 23 17 19 19 19 20 22 24 25 29 31 32 32 32 33 33 34 34
23 24 26 24 26 27 25 22 22 21 21 18 17 18 19 18 22 21 18 20 18 18 20 22 20 19 19 20 22 26 26 29 32 32 32 32 34 32
24 23 23 25 26 27 27 27 26 24 22 20 17 15 15 16 16 16 18 20 20 16 15 17 17 17 17 16 17 19 21 25 30 30 32 33 33 32
27 28 26 25 24 24 24 23 20 20 22 22 22 21 21 21 18 17 17 18 18 18 18 20 21 17 18 17 15 15 20 25 31 30 30 32 34 33
27 24 21 21 21 25 20 21 21 23 23 22 22 20 20 18 17 19 19 17 17 16 12 16 17 16 16 16 15 17 19 20 27 32 31 32 30 31
25 24 24 24 24 24 23 25 25 21 19 18 19 17 16 17 17 15 15 14 14 14 12 14 14 14 15 14 14 16 16 22 25 30 31 31 29 28
25 24 23 21 19 19 19 19 19 18 16 19 17 15 14 13 14 13 13 12 12 11 11 10 10 11 12 12 14 13 15 18 25 27 31 28 28 28
21 21 21 21 19 16 16 16 16 15 16 12 13 12 12 13 11 10 9 11 12 9 8 8 8 11 10 12 16 15 20 24 29 28 30 27 27 27
18 17 18 17 16 13 13 12 12 12 12 10 10 11 11 10 11 9 10 10 10 8 7 7 8 9 8 12 11 16 19 22 21 29 30 28 27 25
11 12 12 12 10 9 8 8 9 9 9 8 8 9 9 8 7 7 7 9 8 6 6 5 7 7 11 12 13 16 15 20 21 25 29 29 27 26
7 6 9 8 7 6 9 9 9 9 8 7 7 7 8 7 6 6 7 7 7 5 5 4 5 9 9 12 14 16 20 18 24 25 31 29 26 25
8 5 6 6 7 7 8 8 7 7 6 5 6 6 7 7 6 6 6 6 5 6 5 4 4 6 7 8 10 14 14 19 23 29 31 28 26 24
7 6 7 7 7 7 5 6 5 6 4 4 4 5 6 5 5 6 7 6 5 5 5 5 5 5 6 7 11 12 14 17 20 28 28 26 26 26

GFSNE_sfc_dewp_096.txt.gz
Dewpoint
58 58 57 58 58 58 57 56 53 49 49 52 51 54 54 53 53 53 51 49 46 46 46 46 47 48 48 48 49 49 50 49 48 48 47 46 46 46
57 57 57 58 57 58 58 57 55 54 50 51 51 53 53 52 52 52 51 49 45 44 44 44 45 46 47 47 47 47 46 46 45 44 43 43 43 43
56 56 56 57 57 58 55 54 54 53 51 52 52 52 52 51 51 51 51 49 46 44 43 43 44 44 45 44 44 45 45 45 45 44 43 43 43 43
55 56 56 56 57 55 54 53 53 54 53 50 52 49 50 48 47 44 45 46 46 45 44 43 43 42 42 42 41 41 41 41 42 42 42 41 41 42
55 55 55 55 54 54 53 54 54 53 53 51 50 43 42 43 43 44 44 44 44 44 42 41 41 41 41 40 39 39 39 39 38 38 38 38 38 37
55 50 44 43 43 47 53 52 51 51 48 47 42 39 40 40 40 39 39 41 41 42 44 41 41 41 41 39 38 37 36 36 36 36 36 36 35 35
39 37 37 37 37 36 40 38 41 41 40 38 35 35 35 35 35 37 36 36 37 39 38 38 38 36 33 37 35 36 36 35 35 36 35 35 36 37
35 34 34 34 34 34 33 33 33 34 33 33 32 32 31 32 32 32 32 32 31 37 34 33 35 34 31 30 32 33 35 35 36 37 37 37 36 36
33 32 32 32 33 32 32 32 32 32 31 32 30 30 31 31 32 31 32 31 31 34 32 31 30 29 28 25 31 32 35 35 34 34 35 35 35 34
30 30 30 31 32 32 31 30 29 30 30 31 31 30 30 30 29 25 24 24 25 25 26 25 27 26 27 27 31 33 33 33 34 35 35 34 33 34
30 29 28 29 31 32 30 30 30 28 29 27 26 24 23 24 25 24 25 24 22 22 25 24 24 27 27 26 28 31 32 31 30 31 34 34 34 34
27 28 29 28 27 28 29 27 25 22 26 25 24 25 25 25 24 23 26 23 23 20 22 21 22 23 20 23 24 23 24 26 28 28 29 30 30 29
25 24 24 25 26 27 24 23 22 22 25 24 23 23 24 25 24 23 21 20 19 18 20 20 19 18 18 17 16 18 19 19 21 24 27 28 28 29
25 24 24 26 24 24 23 23 25 25 23 21 21 21 19 17 16 17 18 19 19 20 20 21 20 20 19 17 15 15 17 20 22 22 23 24 27 28
25 25 25 26 24 25 25 25 23 21 19 18 17 14 13 13 13 15 15 15 14 14 12 14 14 14 16 18 17 19 20 17 20 22 24 25 25 28
26 26 25 26 25 23 21 21 19 18 17 14 13 11 12 12 11 12 11 10 10 10 10 13 13 14 14 16 16 15 14 14 15 17 18 19 21 23
26 23 20 19 17 16 16 14 14 13 12 11 11 10 9 9 9 10 9 9 7 7 7 8 11 11 11 11 10 9 10 12 17 20 20 19 22 23
20 18 17 16 14 12 12 11 11 10 10 10 10 9 8 9 8 8 8 8 6 6 6 6 5 7 7 8 11 11 13 11 11 11 13 15 16 19
16 15 13 11 10 10 10 9 9 10 11 9 8 9 9 8 7 6 7 7 6 5 4 5 7 8 6 4 6 9 7 9 10 11 14 16 16 18
12 11 10 10 9 9 9 9 9 9 8 8 7 6 5 6 6 5 5 4 4 5 5 5 5 6 5 5 6 9 13 11 12 14 14 15 19 22
9 9 9 9 9 9 6 6 3 5 3 1 4 3 -1 6 4 4 4 4 4 4 3 3 5 9 9 10 5 5 8 12 12 13 17 17 15 17
9 8 9 9 7 7 4 3 3 2 3 3 -1 -1 0 4 3 3 4 4 5 4 3 4 5 7 6 5 4 4 6 9 13 15 16 16 17 14
7 7 6 6 6 5 6 4 3 -1 3 3 4 4 1 2 4 4 5 4 3 3 4 4 4 4 5 5 5 6 8 10 12 14 16 21 23 24

GFSNE_sfc_dewp_102.txt.gz
Dewpoint
56 55 55 55 55 55 54 53 51 48 47 49 51 53 55 54 52 53 52 49 47 47 48 48 50 51 51 52 52 53 53 54 55 55 56 55 54 54
56 55 55 55 55 54 55 55 54 53 50 50 50 51 53 54 54 53 53 50 48 46 45 46 47 48 49 50 50 51 52 53 53 54 53 52 51 51
55 55 55 55 55 55 55 55 55 54 52 53 53 53 51 52 51 51 50 50 49 44 44 44 44 45 45 46 47 48 49 50 50 50 50 50 50 49
54 54 55 55 55 55 55 54 54 55 54 53 54 48 45 44 45 45 44 44 46 45 43 43 42 42 42 43 43 44 44 44 44 43 42 42 43 44
55 55 54 53 53 52 52 54 54 53 53 51 45 42 41 40 41 42 40 40 41 41 40 40 40 40 40 40 41 41 42 41 41 40 40 40 40 40
47 44 42 42 43 44 47 44 45 44 43 42 39 38 37 38 36 35 35 36 37 37 36 37 37 36 37 37 37 39 39 39 39 39 38 38 37 38
38 37 37 37 37 37 39 38 40 38 37 36 34 33 32 31 31 32 31 32 34 31 27 29 31 33 31 31 32 32 35 37 37 36 37 36 36 38
35 35 35 35 34 34 34 34 34 35 33 33 31 29 29 29 29 27 24 25 25 29 26 25 30 28 29 27 26 25 28 30 30 30 32 34 35 36
34 33 33 33 33 32 32 31 31 31 30 30 28 28 26 26 26 23 22 21 22 24 23 22 25 23 20 18 21 22 27 24 23 22 22 22 24 28
33 33 32 32 32 31 30 29 29 29 28 28 27 26 25 26 25 24 23 22 23 22 20 18 21 17 18 19 21 22 22 20 20 20 20 21 21 24
31 31 32 32 33 32 28 28 27 27 30 28 26 24 23 22 20 19 17 17 16 16 17 14 15 15 13 16 15 16 17 16 17 19 20 21 22 22
29 29 29 28 28 27 27 26 24 23 22 20 17 16 17 16 18 17 16 14 13 12 13 10 11 9 9 13 10 13 13 17 17 16 17 19 21 19
26 26 28 30 30 28 27 25 23 23 20 17 15 15 14 13 12 12 12 13 11 9 9 11 10 9 10 8 10 11 13 9 11 12 15 16 18 18
25 27 28 29 28 26 24 24 22 19 18 16 14 12 11 10 9 8 8 9 10 7 9 13 6 10 8 6 4 5 8 10 12 14 16 14 13 15
28 29 28 26 25 24 22 19 17 16 14 12 11 9 9 7 7 8 8 7 7 7 4 9 10 8 8 6 6 7 8 8 13 11 10 11 11 13
25 24 22 22 20 18 15 13 14 13 11 11 10 9 9 9 8 8 8 8 7 6 4 6 7 8 7 7 6 7 6 6 6 9 10 11 12 14
23 21 19 17 15 11 11 11 12 11 10 10 10 9 7 7 7 8 7 6 4 4 4 5 6 7 7 5 5 4 4 6 8 9 8 8 10 12
17 14 13 12 11 10 9 10 10 10 10 9 8 7 6 6 6 6 6 4 3 3 3 4 4 4 4 3 6 4 6 7 7 8 9 8 8 10
12 10 10 10 10 9 10 9 8 9 9 7 6 5 5 5 2 2 3 3 2 3 3 3 3 3 1 -3 1 6 5 6 8 9 9 10 10 10
10 9 8 8 9 9 8 6 5 4 3 4 -1 -5 -6 1 0 1 2 1 1 2 1 2 2 2 2 1 2 4 10 8 10 9 9 11 12 14
9 9 8 7 7 5 2 -1 -6 -7 -11 -11 -6 -5 -16 -3 -3 -1 -0 -1 -0 0 -0 0 1 6 4 5 2 1 4 10 11 12 12 11 10 12
8 7 6 5 4 1 -7 -12 -8 -7 -6 -4 -14 -17 -18 -10 -7 -3 -2 -3 -2 -0 0 0 1 2 3 2 0 1 3 7 11 14 17 18 14 10
5 4 2 -2 -4 -7 -3 -8 -8 -17 -9 -8 -10 -9 -19 -12 -3 -3 -4 -3 -1 -2 -2 -1 -0 1 -0 0 1 3 5 7 11 13 16 20 19 19

GFSNE_sfc_dewp_105.txt.gz
Dewpoint
55 55 55 55 56 55 55 53 51 46 47 49 50 53 54 54 52 52 52 51 48 46 46 47 48 50 50 52 52 53 54 55 56 56 56 57 57 58
56 55 55 55 55 55 54 54 53 52 50 50 50 51 51 52 53 53 53 50 45 44 44 44 45 45 46 46 47 48 49 50 51 53 54 54 55 56
55 55 54 55 55 54 54 54 54 54 52 52 52 50 46 49 47 47 47 46 46 42 41 41 41 41 41 42 42 43 44 45 45 46 46 47 48 48
54 54 54 55 54 55 55 54 54 54 54 52 51 45 43 44 44 42 41 42 43 41 39 39 38 38 39 38 39 39 39 39 39 40 40 41 41 42
54 54 54 54 54 54 53 53 53 52 53 52 46 41 39 39 39 40 37 37 39 37 36 33 34 34 34 35 35 35 35 36 37 37 38 38 39 39
51 48 45 46 47 47 48 46 46 45 44 42 39 37 36 36 35 33 33 34 36 27 28 28 32 31 32 32 28 27 28 31 33 34 32 32 33 35
41 39 38 38 38 39 42 39 41 40 38 37 34 33 32 30 29 29 27 29 31 27 27 27 30 30 25 23 22 23 25 29 27 26 25 25 25 26
37 36 36 35 35 34 34 33 34 36 34 32 30 27 27 27 27 25 24 24 22 25 23 24 25 24 19 17 20 21 24 24 23 23 21 21 21 23
35 34 33 33 32 31 31 31 30 30 29 29 26 26 25 26 26 24 23 22 21 21 19 20 21 18 16 13 19 22 20 20 19 19 20 20 20 20
34 33 32 31 31 30 29 29 29 29 28 28 26 25 23 22 22 20 19 18 19 17 13 15 18 12 13 11 19 19 18 17 18 19 17 17 16 18
32 32 32 31 32 31 28 27 26 26 27 27 26 24 22 21 17 16 12 13 13 10 10 7 10 9 9 12 11 15 15 15 16 15 16 16 16 17
29 29 30 30 30 29 27 26 23 23 22 20 19 18 15 13 15 12 11 11 9 8 9 8 7 8 8 11 9 12 9 13 13 14 16 17 18 13
27 28 29 29 29 28 27 25 23 23 21 19 16 14 11 9 8 8 8 10 9 6 8 9 8 7 8 6 6 6 9 8 10 11 15 16 15 13
26 27 27 27 27 25 23 23 22 20 18 15 13 11 10 10 5 6 6 6 8 6 6 11 6 7 6 5 3 5 7 9 11 10 14 11 13 13
27 27 27 25 23 22 21 20 17 16 14 12 10 8 6 5 5 7 7 5 5 4 3 7 8 7 7 6 5 5 5 6 8 11 9 10 10 10
23 21 21 20 18 17 17 15 14 13 12 11 10 7 7 8 7 8 7 6 6 5 4 5 5 7 6 5 5 4 5 5 6 8 9 9 9 10
21 19 18 16 13 12 12 11 11 10 9 10 9 7 6 5 6 7 6 5 3 3 3 4 4 4 5 4 4 3 3 4 6 7 7 7 8 10
17 14 13 12 11 10 10 9 9 9 8 7 7 5 4 4 3 4 4 3 2 2 2 3 3 3 3 2 5 2 3 5 6 7 8 8 7 8
12 11 9 9 9 9 8 7 7 8 7 6 4 2 2 2 2 1 1 1 0 1 1 2 2 2 -1 -5 -0 5 4 5 7 7 8 8 8 9
10 9 8 8 9 7 7 6 5 5 4 3 -0 -4 -7 -1 -2 -1 -0 -3 -1 -1 -0 0 1 1 -0 -2 -0 2 9 8 9 7 7 9 11 14
9 8 7 6 6 5 3 1 -1 -3 -6 -8 -5 -6 -18 -6 -7 -4 -4 -4 -4 -2 -2 -2 -0 4 3 4 -0 -0 3 9 13 12 12 11 11 13
8 7 6 5 3 1 -3 -10 -8 -8 -8 -7 -18 -20 -21 -13 -11 -8 -8 -7 -4 -2 -2 -2 -1 0 1 -0 -1 -1 3 7 12 17 20 20 14 9
4 4 2 1 -1 -4 -1 -6 -6 -17 -10 -10 -11 -11 -23 -16 -7 -7 -8 -5 -4 -4 -3 -3 -2 -2 -2 -1 -0 2 5 8 11 12 18 23 20 21